sat.trackr.live / text

‹ back to catalog

TEIKYOSAT-4 (OORURI)

NORAD 49396 · 2021-102B

PAYLOAD ACTIVE UNKNOWN

§ Identity

Operator
Country
JPN
Launch date
2021-11-09
Launch site
KSCUT
Launch vehicle
Mass (kg)
RCS (m²)

External: N2YO · Heavens-Above · Gunter

§ Orbital elements

Epoch: 2026-05-25T01:14:12.160896Z

Period
95.40 min
Inclination
97.3685°
Eccentricity
0.0012554
Mean motion
15.09411383 rev/d
Perigee alt
529.3 km
Apogee alt
546.7 km
Semi-major
6,916.1 km
B*
9.1505e-5
RAAN
175.4344°
Arg perigee
20.8330°
Mean anomaly
339.3409°
Rev number
24,923

§ Raw data

TEIKYOSAT-4 (OORURI)1 49396U 21102B   26145.05152964  .00001404  00000+0  91505-4 0  99992 49396  97.3685 175.4344 0012554  20.8330 339.3409 15.09411383249238

JSON: /api/v1/satellites/49396 · /tle

For live sub-satellite position, see the globe view (requires WebGL).

§ Visibility from observer

Set your observer location to see the next 7 days of passes ≥ 10°. The values pass through the URL so the page stays shareable.

No JS? Fill the form by hand. The geolocation button needs JavaScript.

§ Radio — SatNOGS DB

ModeDescriptionDownlinkUplink
FSK Mode S - FSK115k2 5.831 GHz
AFSK Mode U - AFSK1k2 437.450 MHz
CW Mode U - CW Beacon 437.450 MHz
GMSK Mode U - GMSK9k6 437.450 MHz
SSTV Mode U - SSTV 437.450 MHz

5 transmitters · refreshed weekly from db.satnogs.org